TIME,DELAY(SENSOR),PRES,T(CTD),SAL,OXYGEN,RAWTEMP,T(OPTODE),TCPHASE,FLUOR,BETA(BETA700),BETA(BETA412),BETA(BETA440),CDOM,C(CSC),ED(ED411.90),ED(ED443.80),ED(ED489.40),ED(ED554.70),LU(LU412.20),LU(LU443.80),LU(LU489.40),LU(LU555.00),COMP,TILTX,TILTX(TILTY),CHECK
1372865907,5803,496.8500061035156000,17.7150001525878900,36.4922981262207000,223.7462005615234400,164.7720947265625000,17.7107791900634770,31.4214992523193360,51,95,89,80,68,10219,2146958262,2147519360,2147269558,2147458322,2147081353,2146955300,2147654409,2147123501,3351,-1,8,10423
1372866024,5805,486.0100097656250000,17.8138999938964840,36.5077018737793000,225.3009948730468800,161.4830017089843800,17.8100605010986330,31.2975597381591800,50,95,87,79,65,10225,2146958418,2147518656,2147267538,2147453778,2147084653,2146957065,2147649097,2147124059,2891,-1,8,50535
1372866139,5805,475.3599853515625000,17.8628997802734380,36.5163002014160160,226.1947937011718800,159.9055938720703000,17.8576908111572270,31.2308292388916000,50,95,88,80,67,10222,2146956370,2147517129,2147267364,2147454290,2147084580,2146956836,2147648685,2147126409,1968,-1,8,26625
1372866254,5804,464.5000000000000000,17.9381008148193360,36.5273017883300800,227.1921997070312500,157.4438934326172000,17.9320106506347660,31.1473197937011720,51,95,87,81,66,10222,2146958217,2147513188,2147267245,2147453476,2147081005,2146954240,2147648036,2147127771,1451,-1,8,39210
1372866372,5806,453.4200134277344000,17.9881992340087900,36.5363998413085940,227.9535064697265600,155.6047058105468800,17.9875507354736330,31.0845909118652340,51,95,88,81,67,10211,2146956873,2147520009,2147268443,2147451922,2147080182,2146955227,2147647533,2147129115,750,-1,8,8421
1372866499,5802,441.5299987792969000,18.0401992797851560,36.5396995544433600,229.4252929687500000,154.0211029052734400,18.0353794097900400,30.9899692535400400,50,94,88,80,66,10215,2146958098,2147516187,2147267465,2147452553,2147079798,2146954020,2147647881,2147127771,2929,-1,8,31752
1372866616,5804,430.4599914550781000,18.1049003601074220,36.5457000732421900,230.5520935058593800,152.0652008056640600,18.0944499969482420,30.9077892303466800,50,95,89,81,66,10221,2146960310,2147516278,2147268918,2147453549,2147083858,2146955949,2147645696,2147132260,2821,-1,8,41086
1372866743,5806,418.6400146484375000,18.1252002716064450,36.5309982299804700,235.0847930908203000,151.1647033691406200,18.1216506958007800,30.6751403808593750,51,94,87,80,65,10215,2146958893,2147518747,2147267309,2147447670,2147079323,2146951222,2147645924,2147130395,1879,-2,8,29721
1372866870,5808,407.0400085449219000,18.1783008575439450,36.5382995605468750,239.2725982666015600,149.4788970947265600,18.1725807189941400,30.4533004760742200,50,93,89,79,64,10221,2146959588,2147515995,2147269632,2147448009,2147082240,2146951588,2147650825,2147126400,847,-1,8,26518
1372866988,5807,396.4100036621094000,18.2248992919921880,36.5415992736816400,242.5093994140625000,147.8805999755859400,18.2208690643310550,30.2808799743652340,50,94,87,80,64,10222,2146957211,2147517897,2147268681,2147450843,2147078482,2146957120,2147647049,2147130624,164,-1,8,38769
1372867115,5805,385.2300109863281000,18.2577991485595700,36.5438995361328100,245.7633056640625000,146.7695007324218800,18.2544403076171880,30.1169300079345700,50,93,88,78,63,10220,2146959853,2147514285,2147270144,2147447643,2147080054,2146956406,2147649389,2147127469,2978,-1,8,28920
1372867244,5804,373.9100036621094000,18.2800006866455080,36.5433006286621100,249.2691955566406200,146.0478973388672000,18.2762508392334000,29.9489593505859380,50,93,87,79,64,10226,2146958555,2147515035,2147267520,2147450349,2147078912,2146959771,2147651456,2147126893,2021,-2,8,56887
1372867371,5802,362.9700012207031000,18.3038005828857420,36.5425987243652340,247.9479980468750000,145.2698974609375000,18.2997608184814450,29.9979801177978500,50,93,88,80,63,10220,2146959158,2147518418,2147265892,2147450221,2147080987,2146954468,2147648301,2147123949,1447,-1,8,28783
1372867498,5806,352.3900146484375000,18.3362998962402340,36.5449981689453100,247.6903991699218800,144.1492004394531200,18.3336296081542970,29.9947490692138670,51,95,88,80,64,10217,2146961124,2147514898,2147267492,2147451190,2147079789,2146954477,2147647844,2147126838,805,-1,8,49461
1372867628,5800,341.6600036621094000,18.3673992156982420,36.5449981689453100,250.9808959960937500,143.2008972167968800,18.3622894287109380,29.8350296020507800,50,96,88,81,63,10215,2146959433,2147516891,2147266752,2147450166,2147081490,2146956233,2147648594,2147125138,3289,-1,8,34781
1372867767,5799,330.2900085449219000,18.3999996185302730,36.5493011474609400,252.4281005859375000,142.1094970703125000,18.3952808380126950,29.7568092346191400,50,96,88,79,63,10217,2146959634,2147514550,2147266852,2147450614,2147080320,2146957933,2147652050,2147129270,2008,-1,8,5897
1372867896,5807,319.7000122070312500,18.4286003112792970,36.5536994934082000,252.4349975585937500,141.1392974853515600,18.4246006011962900,29.7436408996582030,50,96,89,80,64,10218,2146958427,2147516278,2147267556,2147448896,2147075684,2146955126,2147649060,2147126646,1709,-1,8,13500
1372868035,5805,308.7200012207031000,18.4533004760742200,36.5559005737304700,249.6510009765625000,140.3110961914062500,18.4496402740478500,29.8565101623535160,51,94,89,80,63,10217,2146958637,2147514870,2147266843,2147451858,2147080265,2146961682,2147653851,2147127515,952,-1,8,55354
1372868195,5805,296.2900085449219000,18.4899997711181640,36.5569992065429700,249.4496002197265600,139.1549072265625000,18.4845905303955080,29.8502006530761720,52,97,88,80,63,10218,2146957065,2147519259,2147270299,2147449892,2147082560,2146960237,2147655899,2147128457,2868,-1,8,17406
1372868314,5801,285.4700012207031000,18.5308990478515620,36.5592002868652340,248.8040008544922000,137.7391967773437500,18.5273990631103500,29.8608207702636720,53,98,88,81,63,10207,2146959926,2147515995,2147267986,2147448384,2147075739,2146959213,2147659254,2147126884,2152,-1,8,49472
1372868429,5805,274.5100097656250000,18.5981006622314450,36.5638008117675800,247.1154937744140600,135.4895019531250000,18.5954208374023440,29.9072399139404300,54,98,87,80,64,10211,2146959277,2147518765,2147268571,2147447817,2147075355,2146960923,2147664557,2147123181,1248,-2,8,16331
1372868547,5807,263.3999938964844000,18.6893997192382800,36.5730018615722660,245.4485015869140600,132.5659942626953000,18.6838493347167970,29.9444694519042970,54,120,88,82,65,10209,2146962797,2147518729,2147269531,2147449060,2147080118,2146963264,2147669558,2147130139,759,-1,8,2737
1372868674,5806,251.6499938964843800,18.7726001739501950,36.5755996704101560,241.8385925292968800,129.6425018310547000,18.7722892761230470,30.0717506408691400,54,102,90,82,64,10204,2146958930,2147517101,2147270052,2147448832,2147073572,2146966610,2147673152,2147128640,272,-1,8,56305
1372868803,5805,240.4100036621093800,18.9580993652343750,36.5826988220214840,241.2178955078125000,123.6102981567382800,18.9548492431640620,30.0212001800537100,61,103,89,81,64,10198,2146963017,2147516077,2147267913,2147446445,2147076114,2146966948,2147680228,2147131291,220,-1,8,49498
1372868930,5804,229.8699951171875000,19.0387992858886720,36.5878982543945300,240.3446044921875000,120.6754989624023400,19.0436992645263670,30.0232601165771500,65,104,91,82,64,10196,2146957723,2147517705,2147269595,2147448896,2147074331,2146975040,2147697462,2147125257,2524,-2,9,7884
1372869069,5805,218.3699951171875000,19.1781997680664060,36.5876007080078100,240.6558074951172000,116.1791000366211000,19.1798801422119140,29.9500904083251950,73,106,89,81,64,10180,2146958189,2147517293,2147269924,2147445366,2147084059,2146982656,2147715510,2147131510,2539,-1,8,29345
1372869199,5805,207.2700042724609400,19.3437004089355470,36.5960006713867200,239.9223022460937500,110.4582977294921900,19.3532295227050780,29.9095802307128900,79,104,90,82,63,10180,2146959396,2147517403,2147271634,2147447003,2147083364,2146997366,2147744393,2147134006,1528,-2,8,59196
1372869314,5804,197.2799987792968800,19.4958992004394530,36.6003990173339840,242.5796966552734400,105.9742965698242200,19.4891605377197270,29.7286090850830080,84,110,90,83,63,10171,2146959131,2147519012,2147271780,2147446390,2147085961,2147011830,2147785289,2147135268,328,-1,8,30038
1372869369,5806,192.5800018310547000,19.5358009338378900,36.6006011962890600,243.9806976318359400,104.3359985351562500,19.5388507843017580,29.6434803009033200,83,110,90,82,64,10161,2146955693,2147516370,2147274432,2147444672,2147090697,2147025472,2147810102,2147133577,3499,-1,8,37776
1372869449,5806,186.2200012207031200,19.6823997497558600,36.6041984558105500,246.9550018310547000,99.9035186767578100,19.6732997894287100,29.4520301818847660,90,111,92,82,64,10150,2146959606,2147515840,2147273106,2147444470,2147094052,2147043913,2147854235,2147138304,380,-1,8,23209
1372869504,5803,182.5000000000000000,19.6965007781982420,36.6039009094238300,247.4598999023437500,99.3333969116211000,19.6905994415283200,29.4221992492675780,89,111,92,84,66,10152,2146956434,2147521408,2147276205,2147443885,2147096009,2147067757,2147891108,2147140288,3502,-2,8,64693
1372869559,5804,178.9799957275390600,19.7465991973876950,36.5852012634277340,255.1882934570312500,97.7509765625000000,19.7386207580566400,29.0629806518554700,75,108,91,84,64,10161,2146958637,2147520347,2147275849,2147441636,2147098998,2147085504,2147922971,2147145792,3000,-2,9,38910
1372869626,5807,175.0299987792968800,19.7957000732421880,36.5668983459472660,268.0515136718750000,96.1291427612304700,19.7878494262695300,28.5053691864013670,71,110,91,84,63,10155,2146960073,2147521508,2147276772,2147445037,2147110784,2147118290,2147979593,2147147355,3029,-1,8,11892
1372869693,5805,171.1000061035156200,19.9675998687744140,36.5602989196777340,275.0663146972656000,90.5186004638671900,19.9582099914550780,28.1546192169189450,69,111,92,84,61,10137,2146959762,2147521728,2147279734,2147442541,2147120109,2147160941,2148039140,2147152045,2248,-2,8,4197
1372869777,5809,167.3099975585937500,20.2716007232666000,36.5821990966796900,273.9490051269531000,80.3669586181640600,20.2667407989501950,28.0716590881347660,79,111,92,85,62,10148,2146959808,2147520676,2147282432,2147442715,2147131501,2147201746,2148104192,2147154185,3570,-2,9,6879
1372869880,5806,164.1399993896484400,20.5324993133544920,36.6287002563476560,264.0327148437500000,72.4965820312500000,20.5062007904052730,28.3717403411865230,84,111,95,84,63,10142,2146960411,2147522761,2147285028,2147440502,2147138240,2147238006,2148171885,2147161709,3390,-2,9,60387
1372870007,5804,160.0800018310547000,20.6494007110595700,36.6516990661621100,249.5847015380859400,68.0854873657226600,20.6405105590820300,28.9285793304443360,89,111,90,84,63,10146,2146959332,2147525366,2147288000,2147441846,2147161801,2147303104,2148271680,2147164864,2821,-2,9,30350
1372870112,5806,155.2899932861328000,20.8705997467041000,36.6782989501953100,239.1313934326172000,60.3640289306640600,20.8758201599121100,29.2996406555175780,87,116,91,83,64,10149,2146960987,2147530944,2147293485,2147442368,2147186898,2147393654,2148413952,2147175616,2274,-2,9,15485
1372870191,5806,151.5899963378906200,20.9923992156982420,36.6811981201171900,234.9320983886718800,56.9056282043457000,20.9812908172607420,29.4505805969238280,84,115,91,84,64,10149,2146958610,2147529051,2147297325,2147438299,2147210578,2147466688,2148531227,2147184182,2188,-2,8,65234
1372870282,5805,147.8800048828125000,21.0814990997314450,36.6894989013671900,232.3226928710937500,54.0262107849121100,21.0691394805908200,29.5370998382568360,87,126,91,84,65,10153,2146962313,2147537225,2147303113,2147438930,2147240731,2147556224,2148674258,2147192292,2384,-1,8,3322
1372870399,5804,144.3099975585937500,21.1800003051757800,36.6898002624511700,230.5238952636718800,50.7584114074707000,21.1688899993896500,29.5809192657470700,90,118,91,84,64,10145,2146963666,2147540068,2147307017,2147438912,2147275181,2147639908,2148824841,2147199616,1656,-1,9,16279
1372870574,5803,140.3999938964843800,21.3896999359130860,36.6833000183105500,229.7339935302734400,44.0719490051269500,21.3731498718261720,29.5332508087158200,100,117,90,84,64,10146,2146963538,2147540736,2147315510,2147434258,2147324928,2147776594,2149047881,2147215552,1509,-2,9,26595
1372870731,5802,135.5399932861328000,21.4768009185791000,36.6843986511230500,230.8123931884765600,40.8364105224609400,21.4720592498779300,29.4401206970214840,104,115,88,82,64,10135,2146966070,2147544036,2147325851,2147437184,2147388571,2147911734,2149271277,2147230198,2549,-1,8,31723
1372870810,5804,131.2500000000000000,21.5704994201660160,36.6882019042968750,230.6224975585937500,37.9109611511230500,21.5615291595459000,29.4117908477783200,108,121,90,84,63,10137,2146972580,2147549622,2147335808,2147436178,2147470921,2148110235,2149575424,2147254290,3093,-2,8,5322
1372870877,5804,127.5599975585937500,21.6585998535156250,36.6963005065918000,229.2532958984375000,35.1399192810058600,21.6463203430175780,29.4419708251953120,112,116,90,83,65,10136,2146967396,2147541110,2147314230,2147435776,2147409243,2147878144,2149149284,2147226212,2281,-2,9,53196
1372870956,5803,123.3600006103515600,21.7299003601074220,36.7089004516601560,225.1152038574218800,32.3904113769531250,21.7304897308349600,29.6076393127441400,113,119,91,82,65,10131,2146974921,2147565211,2147359762,2147434669,2147683529,2148581037,2150284251,2147310025,1993,-2,8,11184
1372871038,5806,119.3799972534179700,21.8439998626709000,36.7179985046386700,219.2373046875000000,28.7505607604980470,21.8419704437255860,29.8537101745605470,113,119,89,83,63,10132,2146983698,2147577682,2147377371,2147437376,2147832292,2148891766,2150718336,2147348809,1967,-2,9,15709
1372871129,5806,116.0100021362304700,21.9925994873046880,36.6683998107910160,223.0818023681640600,24.3290500640869140,21.9774799346923830,29.6046295166015620,120,114,90,83,64,10128,2146988681,2147587200,2147401325,2147435437,2148017216,2149259620,2151222125,2147390902,1676,-2,9,51233
1372871280,5806,112.1999969482421900,22.1580009460449220,36.6371994018554700,238.4615020751953000,19.2539196014404300,22.1331405639648440,28.8088092803955080,124,113,93,85,63,10106,2146997238,2147607131,2147428681,2147435721,2148316580,2149814866,2151953526,2147453449,1617,-2,9,54364
1372871412,5805,107.5699996948242200,22.3227005004882800,36.6377983093261700,245.5437011718750000,13.3241395950317380,22.3152008056640620,28.4170398712158200,114,111,91,84,63,10121,2147018934,2147635437,2147483209,2147439588,2148819666,2150747958,2153170112,2147558134,1298,-2,9,53565
1372871503,5806,103.8600006103515600,22.4820995330810550,36.6315994262695300,249.3399047851562500,8.3415536880493160,22.4683094024658200,28.1896800994873050,105,109,91,83,63,10124,2147031104,2147665956,2147532617,2147440000,2149293568,2151591670,2154217289,2147650816,805,-1,9,42767
1372871630,5806,100.3399963378906200,22.5487003326416000,36.6335983276367200,252.1566925048828000,5.9597702026367190,22.5415496826171880,28.0391693115234380,102,113,92,84,62,10115,2147055369,2147704987,2147584694,2147443849,2149899675,2152644946,2155459520,2147765202,237,-2,9,23309
1372871715,5807,98.0000000000000000,22.6755008697509770,36.6325988769531250,254.9158020019531200,1.9415800571441650,22.6651897430419920,27.8728008270263670,96,117,94,85,63,10092,2147078162,2147744054,2147643346,2147448685,2150550774,2153755757,2156738587,2147877668,761,-1,8,13538
1372871770,5804,95.9300003051757800,22.7492008209228500,36.6255989074707000,255.9627990722656200,-0.5448461174964905,22.7417392730712900,27.7982997894287100,93,122,94,85,64,10079,2147098834,2147781248,2147685787,2147445120,2151141632,2154738697,2157839625,2147980736,1033,-2,9,33288
1372871825,5806,93.9100036621093800,22.8791999816894530,36.6026992797851560,256.6976013183594000,-4.9818010330200195,22.8784294128417970,27.7132797241210940,114,136,96,89,63,10065,2147115291,2147799113,2147715081,2147450541,2151560859,2155324105,2158357741,2148028900,984,-1,9,41823
1372871880,5805,91.9499969482421900,23.0174999237060550,36.5931015014648440,255.9573974609375000,-9.1696405410766600,23.0075492858886720,27.6925792694091800,124,139,97,90,63,10033,2147138587,2147833417,2147755940,2147450742,2152170816,2156267328,2159409472,2148127350,1288,-2,9,56574
1372871935,5806,90.1500015258789000,23.1184005737304700,36.5910987854003900,255.0540924072265600,-12.1077804565429690,23.0981998443603500,27.6941890716552730,112,134,99,92,61,10029,2147115721,2147787227,2147669074,2147448329,2151284233,2154408786,2156792896,2147911076,1534,-2,9,16164
1372872020,5807,87.1299972534179700,23.3917999267578120,36.5814018249511700,254.7265014648437500,-20.8584594726562500,23.3685092926025400,27.6006393432617200,113,146,101,92,63,10005,2147239963,2147998436,2147965805,2147462080,2154946907,2160810029,2164695542,2148626340,1758,-2,9,60937
1372872075,5801,85.0400009155273400,23.5163002014160160,36.5626983642578100,258.9725036621094000,-25.0257396697998050,23.4974002838134770,27.3739891052246100,112,138,95,89,62,10032,2147282102,2148060224,2148049536,2147467456,2156119268,2162638729,2166673673,2148826249,1489,-2,9,30646
1372872142,5808,83.2799987792968800,23.6005001068115230,36.5456008911132800,266.1637878417969000,-27.8608093261718750,23.5851497650146500,27.0499000549316400,101,130,97,89,61,10031,2147329673,2148132196,2148140315,2147473133,2157266203,2164312740,2168232539,2148995026,1028,-1,9,39005
1372872257,5805,81.8199996948242200,23.7733001708984380,36.5205001831054700,287.5103149414062500,-33.0439300537109400,23.7457103729248050,26.1800899505615230,82,123,94,87,60,10057,2147392649,2148227136,2148236242,2147476260,2158892196,2166735030,2170380361,2149199204,796,-2,8,49678
1372872354,5804,80.3300018310546900,23.8297004699707030,36.5107994079589840,286.7348022460937500,-35.5507087707519500,23.8234195709228500,26.1783103942871100,79,121,94,85,61,10075,2147473746,2148329609,2148310966,2147485220,2161179785,2170069211,2173188534,2149451492,3442,-2,9,46803
1372872433,5806,77.7500000000000000,23.9071006774902340,36.5003013610839840,278.7961120605469000,-38.0389099121093750,23.9006099700927730,26.4412403106689450,79,123,94,88,64,10074,2147568557,2148471396,2148472758,2147496393,2163973284,2174062710,2176611117,2149805092,306,-1,9,16851
1372872488,5807,75.7799987792968800,23.9799003601074220,36.4865989685058600,278.7267150878906000,-40.6181793212890600,23.9806594848632800,26.4130191802978500,76,120,95,87,61,10076,2147644361,2148574363,2148572891,2147503652,2166177280,2177180489,2179335762,2150098770,244,-2,9,39163
1372872543,5806,73.8199996948242200,24.2201004028320300,36.4570999145507800,290.4189147949219000,-47.3240089416503900,24.1889896392822270,25.9062690734863280,71,117,91,86,63,10084,2147735222,2148703716,2148716242,2147512237,2168711451,2180763858,2182544950,2150453613,521,-1,8,20231
1372872610,5807,72.4100036621093800,24.4087009429931640,36.4664001464843750,304.4642028808594000,-51.6279983520507800,24.3228702545166000,25.3689098358154300,67,112,93,83,60,10098,2147529280,2148359378,2148263296,2147477897,2162418788,2170384000,2171179483,2149333769,257,-2,9,29736
1372872755,5804,70.5999984741211000,24.6219005584716800,36.4435997009277340,323.2933044433594000,-60.6643791198730500,24.6043701171875000,24.6509399414062500,65,117,91,87,60,10096,2147953782,2148990738,2148960905,2147528640,2174398720,2188630610,2188968786,2151091163,203,-2,8,33512
1372872930,5803,69.8099975585937500,24.7339000701904300,36.4319000244140600,324.1821899414062500,-64.0151824951171900,24.7089099884033200,24.5843601226806640,66,116,91,86,60,10103,2147729773,2148629540,2148464585,2147482166,2168377581,2178594998,2177616557,2149907766,2980,-2,9,24439
1372873050,5809,66.9199981689453100,24.9815998077392580,36.3931999206543000,295.9212951660156000,-72.3273315429687500,24.9685802459716800,25.4185600280761720,62,114,91,85,62,10102,2148211904,2149286390,2149125970,2147532571,2182543734,2198980379,2196216384,2151893138,2583,-1,9,41829
1372873105,5808,65.1399993896484400,24.9619007110595700,36.3777999877929700,296.2607116699219000,-71.9900970458984400,24.9580307006835940,25.4108295440673830,61,114,96,87,61,10099,2148335506,2149434057,2149251355,2147543707,2186166006,2203588644,2199883008,2152315026,2660,-2,9,27916
1372873172,5806,63.1399993896484400,24.9733009338378900,36.3670005798339840,308.6814880371094000,-72.6216812133789000,24.9777793884277340,24.9833602905273440,60,114,93,85,61,10106,2148411437,2149499474,2149285778,2147554907,2188430683,2205719753,2200822107,2152493549,2894,-2,9,32724
1372873239,5802,61.3499984741210940,25.0196990966796880,36.3793983459472660,324.2897033691406000,-73.9998321533203100,25.0208892822265620,24.4659690856933600,60,114,94,86,61,10111,2148616155,2149748644,2149512274,2147567661,2194537462,2213675721,2207290816,2153256384,2836,-1,9,30994
1372873324,5802,58.8499984741210940,25.0765991210937500,36.3321990966796900,329.8121948242187500,-75.7549362182617200,25.0758094787597660,24.2749404907226560,60,112,92,85,59,10112,2148916443,2150067556,2149741257,2147588909,2202014290,2221853001,2212809782,2154015606,2187,-2,9,21545
1372873379,5802,56.9599990844726560,25.0317001342773440,36.2593994140625000,326.0346984863281000,-74.5889282226562500,25.0393199920654300,24.4049491882324220,59,113,93,86,59,10108,2149218450,2150395574,2150037275,2147627053,2210643419,2231641014,2219967835,2154924662,1535,-2,8,40310
1372873446,5807,55.1100006103515600,25.0701007843017580,36.2304000854492200,335.0704956054687500,-75.8079528808593800,25.0774707794189450,24.1146793365478500,58,110,90,84,58,10117,2149516123,2150690953,2150310656,2147677750,2218087003,2238952585,2224341266,2155488393,653,-2,9,42329
1372873631,5807,51.3499984741210940,25.4468002319335940,36.2132987976074200,386.6937866210937500,-86.8980331420898400,25.4250297546386720,22.5563697814941400,57,112,90,85,59,10087,2150144192,2151330477,2150830454,2147760685,2237011739,2259073435,2237954441,2157387254,776,0,8,53337
1372873691,5808,49.8899993896484400,25.5062999725341800,36.2102012634277340,397.3323059082031000,-89.6586532592773400,25.5116996765136720,22.2567501068115230,58,113,91,84,57,10084,2150400164,2151591890,2151017325,2147786340,2245204553,2267590281,2243752923,2158202395,1113,-1,9,37489
1372873777,5808,47.6699981689453100,25.6142997741699220,36.2019996643066400,392.2597961425781000,-93.2144088745117200,25.6234207153320300,22.3444690704345700,57,113,91,84,58,10081,2150831177,2152025563,2151363849,2147838637,2258112265,2281420681,2253070720,2159507419,1085,-1,9,5001
1372873850,5803,45.9300003051757800,25.7826995849609380,36.1859016418457000,427.9045104980469000,-98.6056289672851600,25.7929992675781250,21.4271602630615230,58,114,92,85,62,10082,2151138112,2152315510,2151555620,2147872365,2266367616,2288947136,2257545746,2160410834,1150,-1,9,53453
1372873991,5807,43.7000007629394500,26.3020992279052730,36.1370010375976560,407.2869873046875000,-114.9140014648437500,26.3074493408203120,21.7336692810058600,56,113,91,85,59,10080,2151545792,2152654390,2151663798,2147809554,2277735963,2300431021,2264429869,2161259510,3504,-2,9,25076
1372874077,5805,41.9099998474121100,26.4901008605957030,36.1197013854980500,459.1249084472656000,-120.5223999023437500,26.4848899841308600,20.4989795684814450,57,112,91,87,62,10069,2151816685,2152933878,2151846866,2147817536,2287690733,2311417417,2272997220,2162679689,3118,-2,9,30128
1372874244,5802,39.8699989318847660,26.5475997924804700,36.1133003234863300,485.7202148437500000,-122.8710021972656200,26.5592803955078120,19.9248294830322270,58,116,90,84,59,10072,2152112292,2153227373,2152086564,2147860598,2296282258,2320334061,2279471716,2164204269,3118,-1,9,45732
1372874580,5801,37.7400016784668000,26.8381004333496100,36.0840988159179700,404.8756103515625000,-132.3134002685547000,26.8588409423828120,21.6006202697753900,56,109,89,84,62,10081,2153173696,2154311140,2153108297,2148184329,2332139108,2356153453,2302636059,2168360064,1252,-2,9,44965